User: anonymous   Login
Location: Fort Wayne
(41.1310°N, 85.1290°W)
Time: 16:24:10
(UTC-04:00)
Language:

Tiros 1 despin weight - Orbit

View from above orbital plane
View from above orbital plane
View from above satellite
View from above satellite

Ground track
Ground track

The orbit data is extracted from the following two-line orbital elements,

1 00115U 60002D   18112.13816673  .00000087  00000-0  37682-4 0  9998
2 00115  48.1659  99.2307 0034361  18.2769 341.9370 14.83271761 96082
Epoch (UTC): 22 April 2018 03:18:57
Eccentricity: 0.0034361
inclination: 48.1659°
perigee height: 595 km
apogee height: 643 km
right ascension of ascending node: 99.2307°
argument of perigee: 18.2769°
revolutions per day: 14.83271761
mean anomaly at epoch: 341.9370°
orbit number at epoch: 9608

The dashed part of the orbit path shows where the satellite is in the earth's shadow,  

DLR